Regional Weather Roundup
Issued by NWS

Home | Current Version | Previous Version | Graphics & Text | Print | Product List | Glossary On
Versions: 1 2 3 4 5 6 7 8 9 10 11 12 13 14 15 16 17 18 19 20 21 22 23 24 25 26 27 28 29 30 31 32 33 34 35 36 37 38 39 40 41 42 43 44 45 46 47 48 49 50
000
ASUS43 KOAX 041110
RWRNE

WEATHER ROUNDUP FOR NEBRASKA
NATIONAL WEATHER SERVICE OMAHA NE
600 AM CDT MON MAY 04 2015

NOTES: SATELLITE DATA IS BEING USED TO AUGMENT CLOUD COVER ABOVE
       12000 FEET.
       "FAIR" INDICATES FEW OR NO CLOUDS BELOW 12,000 FEET WITH NO
       SIGNIFICANT WEATHER AND/OR OBSTRUCTIONS TO VISIBILITY.

  * THESE STATIONS DO NOT REPORT WEATHER SUCH AS RAIN...SNOW OR FOG.

NEZ001>004-019>022-054>056-041200-
NEBRASKA PANHANDLE

CITY           SKY/WX    TMP DP  RH WIND       PRES   REMARKS
SCOTTSBLUFF    CLOUDY    50  38  63 E8        30.10S
ALLIANCE       CLOUDY    47  41  80 SE9       30.11R
CHADRON        CLOUDY    47  41  80 N5        30.13R
KIMBALL        CLOUDY    47  40  75 SE5       30.09S
SIDNEY         CLOUDY    49  38  65 E6        30.10S
$$

NEZ057>060-069>072-079>082-041200-
SOUTHWEST NEBRASKA

CITY           SKY/WX    TMP DP  RH WIND       PRES   REMARKS
NORTH PLATTE   CLOUDY    50  37  61 NE5       30.05F
IMPERIAL       CLOUDY    52  36  54 NE10      30.03F
LEXINGTON      CLOUDY    57  38  49 N16G23    29.99F
MCCOOK         CLOUDY    58  38  47 E12       30.02R
OGALLALA       CLOUDY    51  36  56 NE8       30.07S
$$

NEZ005>010-023>029-035>040-094-041200-
NORTH CENTRAL NEBRASKA

CITY           SKY/WX    TMP DP  RH WIND       PRES   REMARKS
VALENTINE      MOCLDY    49  31  49 NE5       30.12R
AINSWORTH      PTCLDY    45  31  57 CALM      30.11R
BROKEN BOW     CLOUDY    56  31  38 NE9       30.06R
O`NEILL        MOCLDY    51  34  51 NE9       30.08S
ORD            CLOUDY    55  29  36 NE7       30.05R
THEDFORD       MOCLDY    49  34  56 CALM      30.11F
$$

NEZ041-046>049-061>064-073>077-083>087-041200-
SOUTH CENTRAL NEBRASKA

CITY           SKY/WX    TMP DP  RH WIND       PRES   REMARKS
GRAND ISLAND   CLOUDY    59  38  45 NE17G25   30.01F
AURORA         LGT RAIN  55  46  71 NE20      29.99R
HASTINGS       CLOUDY    57  46  66 NE16      29.99R
HEBRON         MOCLDY    60  54  79 NE13      29.93S
HOLDREGE       CLOUDY    54  46  74 N16       29.97F
KEARNEY *      CLOUDY    55  41  58 NE15      30.01R
YORK           LGT RAIN  55  48  76 NE15      30.00F
$$

NEZ011>018-030>034-042>045-041200-
NORTHEAST NEBRASKA

CITY           SKY/WX    TMP DP  RH WIND       PRES   REMARKS
NORFOLK        CLOUDY    58  30  34 NE17G24   30.02S
ALBION         CLOUDY    55  31  39 NE7G17    30.05R
BLAIR          MOCLDY    56  47  70 N7        29.99R
COLUMBUS *     CLOUDY    55  37  50 NE9       30.04R
FREMONT        CLOUDY    58  46  65 CALM      30.01R
TEKAMAH        MOCLDY    57  42  57 N12       30.00R
WAYNE          MOCLDY    50  40  69 N7        30.04F
$$

NEZ050>053-065>068-078-088>093-041200-
SOUTHEAST NEBRASKA

CITY           SKY/WX    TMP DP  RH WIND       PRES   REMARKS
LINCOLN        LGT RAIN  58  50  75 N14G29    29.98S
OMAHA EPPLEY   CLOUDY    58  50  75 N9        29.98R
BEATRICE       CLOUDY    58  55  89 NE10      29.95R
FALLS CITY     CLOUDY    66  56  70 S12       29.92R
NEBRASKA CITY  CLOUDY    57  54  91 NW7       30.00R
PLATTSMOUTH    CLOUDY    59  53  80 N8        29.99R
$$

NEZ044-045-051>053-067-041200-
OMAHA AREA

CITY           SKY/WX    TMP DP  RH WIND       PRES   REMARKS
OMAHA EPPLEY   CLOUDY    58  50  75 N9        29.98R
BLAIR          MOCLDY    56  47  70 N7        29.99R
FREMONT        CLOUDY    58  46  65 CALM      30.01R
MILLARD        CLOUDY    60  50  69 NW3       30.00R
OFFUTT AFB     CLOUDY    60  51  72 NW6       29.98R
PLATTSMOUTH    CLOUDY    59  53  80 N8        29.99R
WAHOO          CLOUDY    57  48  73 N3        30.02R
$$



USA.gov is the U.S. government's official web portal to all federal, state and local government web resources and services.